FDX401 KPWM-KBOS

Flight info

Callsign FDX401
Flight time 0h 25m
Altitude 20000
Route OOSHN OOSHN5
Aircraft A306/H-VGDW/C

Departure

Time 2026-04-15 03:33
Airport Portland International Jetport (KPWM)

Arrival

Time 2026-04-15 03:59
Airport Boston Logan International Airport (KBOS)
Time Latitude Longitude Altitude Speed Heading
2026-04-15 03:12 43.64871 -70.30297 65 ft 0 kts 350°
2026-04-15 03:22 43.64864 -70.30296 65 ft 2 kts 347°
2026-04-15 03:23 43.64848 -70.30290 56 ft 2 kts 341°
2026-04-15 03:23 43.64833 -70.30280 56 ft 2 kts 300°
2026-04-15 03:23 43.64831 -70.30259 62 ft 1 kts 262°
2026-04-15 03:23 43.64831 -70.30254 62 ft 0 kts 261°
2026-04-15 03:27 43.64831 -70.30258 62 ft 2 kts 261°
2026-04-15 03:27 43.64823 -70.30318 64 ft 10 kts 260°
2026-04-15 03:27 43.64804 -70.30452 58 ft 18 kts 259°
2026-04-15 03:27 43.64776 -70.30652 57 ft 19 kts 250°
2026-04-15 03:28 43.64706 -70.30700 61 ft 10 kts 178°
2026-04-15 03:28 43.64617 -70.30694 61 ft 15 kts 180°
2026-04-15 03:28 43.64573 -70.30779 57 ft 15 kts 274°
2026-04-15 03:28 43.64586 -70.30950 62 ft 20 kts 275°
2026-04-15 03:29 43.64599 -70.31162 68 ft 24 kts 276°
2026-04-15 03:29 43.64616 -70.31397 64 ft 25 kts 275°
2026-04-15 03:29 43.64632 -70.31632 76 ft 24 kts 275°
2026-04-15 03:29 43.64647 -70.31837 87 ft 19 kts 275°
2026-04-15 03:30 43.64657 -70.32011 84 ft 17 kts 274°
2026-04-15 03:30 43.64667 -70.32156 88 ft 13 kts 275°
2026-04-15 03:30 43.64673 -70.32264 90 ft 10 kts 274°
2026-04-15 03:30 43.64678 -70.32353 93 ft 10 kts 275°
2026-04-15 03:31 43.64680 -70.32475 88 ft 15 kts 268°
2026-04-15 03:31 43.64668 -70.32557 90 ft 0 kts 239°
2026-04-15 03:31 43.64662 -70.32567 91 ft 4 kts 229°
2026-04-15 03:32 43.64616 -70.32575 91 ft 10 kts 162°
2026-04-15 03:32 43.64580 -70.32484 92 ft 12 kts 97°
2026-04-15 03:32 43.64569 -70.32319 90 ft 38 kts 95°
2026-04-15 03:32 43.64517 -70.31569 67 ft 118 kts 95°
2026-04-15 03:33 43.64419 -70.30159 251 ft 173 kts 94°
2026-04-15 03:33 43.64288 -70.28323 889 ft 208 kts 95°
2026-04-15 03:33 43.64145 -70.26182 1304 ft 244 kts 97°
2026-04-15 03:33 43.63973 -70.23695 1856 ft 275 kts 96°
2026-04-15 03:34 43.63794 -70.21036 2368 ft 287 kts 95°
2026-04-15 03:34 43.63609 -70.18278 2916 ft 289 kts 95°
2026-04-15 03:34 43.63422 -70.15506 3467 ft 291 kts 94°
2026-04-15 03:34 43.63231 -70.12711 3868 ft 293 kts 94°
2026-04-15 03:35 43.63039 -70.09906 3981 ft 295 kts 94°
2026-04-15 03:35 43.62844 -70.07089 3990 ft 295 kts 94°
2026-04-15 03:35 43.62649 -70.04272 4070 ft 295 kts 94°
2026-04-15 03:35 43.62443 -70.01451 4514 ft 296 kts 97°
2026-04-15 03:36 43.61870 -69.98727 5034 ft 297 kts 117°
2026-04-15 03:36 43.60615 -69.96532 5575 ft 291 kts 146°
2026-04-15 03:36 43.58814 -69.95457 6125 ft 279 kts 178°
2026-04-15 03:36 43.56889 -69.95395 6668 ft 275 kts 191°
2026-04-15 03:37 43.55004 -69.95776 7202 ft 273 kts 197°
2026-04-15 03:37 43.53159 -69.96367 7740 ft 273 kts 200°
2026-04-15 03:37 43.51316 -69.97030 8284 ft 274 kts 201°
2026-04-15 03:37 43.49467 -69.97688 8839 ft 276 kts 200°
2026-04-15 03:38 43.47592 -69.98319 9404 ft 278 kts 199°
2026-04-15 03:38 43.45698 -69.98915 9953 ft 280 kts 199°
2026-04-15 03:38 43.43783 -69.99488 10460 ft 283 kts 198°
2026-04-15 03:38 43.41850 -70.00048 10999 ft 285 kts 198°
2026-04-15 03:39 43.39890 -70.00608 11544 ft 295 kts 198°
2026-04-15 03:39 43.37816 -70.01210 12119 ft 315 kts 198°
2026-04-15 03:39 43.35606 -70.01854 12693 ft 334 kts 198°
2026-04-15 03:39 43.33274 -70.02527 13360 ft 348 kts 198°
2026-04-15 03:40 43.30869 -70.03211 14097 ft 357 kts 198°
2026-04-15 03:40 43.28422 -70.03900 14807 ft 361 kts 198°
2026-04-15 03:40 43.25951 -70.04594 15524 ft 364 kts 198°
2026-04-15 03:40 43.23456 -70.05295 16263 ft 368 kts 198°
2026-04-15 03:41 43.20938 -70.06007 17024 ft 372 kts 198°
2026-04-15 03:41 43.18389 -70.06730 17804 ft 376 kts 198°
2026-04-15 03:41 43.15809 -70.07463 18524 ft 381 kts 198°
2026-04-15 03:41 43.13173 -70.08216 18651 ft 390 kts 198°
2026-04-15 03:42 43.10517 -70.08970 18645 ft 389 kts 198°
2026-04-15 03:42 43.07869 -70.09716 18647 ft 389 kts 198°
2026-04-15 03:42 43.05222 -70.10463 18645 ft 388 kts 198°
2026-04-15 03:42 43.02575 -70.11211 18651 ft 389 kts 198°
2026-04-15 03:43 42.99926 -70.11960 18546 ft 389 kts 198°
2026-04-15 03:43 42.97275 -70.12710 18118 ft 389 kts 198°
2026-04-15 03:43 42.94638 -70.13452 17599 ft 385 kts 197°
2026-04-15 03:43 42.92027 -70.14186 17134 ft 382 kts 197°
2026-04-15 03:44 42.89416 -70.14921 16668 ft 380 kts 197°
2026-04-15 03:44 42.86871 -70.15636 16223 ft 377 kts 197°
2026-04-15 03:44 42.84275 -70.16366 15766 ft 374 kts 197°
2026-04-15 03:44 42.81731 -70.17080 15328 ft 372 kts 197°
2026-04-15 03:45 42.79244 -70.17778 14902 ft 369 kts 197°
2026-04-15 03:45 42.76739 -70.18480 14479 ft 366 kts 197°
2026-04-15 03:45 42.74219 -70.19186 14048 ft 364 kts 197°
2026-04-15 03:45 42.71783 -70.19868 13626 ft 361 kts 197°
2026-04-15 03:46 42.69335 -70.20553 13161 ft 358 kts 197°
2026-04-15 03:46 42.66900 -70.21234 12704 ft 356 kts 197°
2026-04-15 03:46 42.64488 -70.21936 12242 ft 352 kts 200°
2026-04-15 03:46 42.62321 -70.23318 11777 ft 340 kts 219°
2026-04-15 03:47 42.60728 -70.25591 11243 ft 330 kts 240°
2026-04-15 03:47 42.59911 -70.28369 10678 ft 307 kts 259°
2026-04-15 03:47 42.59659 -70.31159 10153 ft 290 kts 265°
2026-04-15 03:47 42.59502 -70.33825 9608 ft 277 kts 265°
2026-04-15 03:48 42.59356 -70.36379 9054 ft 266 kts 265°
2026-04-15 03:48 42.59214 -70.38834 8584 ft 257 kts 265°
2026-04-15 03:48 42.59070 -70.41245 8139 ft 256 kts 265°
2026-04-15 03:48 42.58923 -70.43637 7696 ft 254 kts 265°
2026-04-15 03:49 42.58775 -70.46015 7255 ft 252 kts 265°
2026-04-15 03:49 42.58625 -70.48370 6830 ft 250 kts 265°
2026-04-15 03:49 42.58473 -70.50716 6392 ft 248 kts 265°
2026-04-15 03:49 42.58318 -70.53037 5951 ft 247 kts 266°
2026-04-15 03:50 42.58154 -70.55347 5503 ft 245 kts 266°
2026-04-15 03:50 42.57982 -70.57632 5061 ft 243 kts 266°
2026-04-15 03:50 42.57801 -70.59927 4634 ft 246 kts 266°
2026-04-15 03:50 42.57606 -70.62242 4193 ft 248 kts 266°
2026-04-15 03:51 42.57399 -70.64569 3753 ft 249 kts 266°
2026-04-15 03:51 42.57183 -70.66907 3323 ft 250 kts 265°
2026-04-15 03:51 42.56974 -70.69189 3013 ft 234 kts 265°
2026-04-15 03:51 42.56780 -70.71235 2998 ft 205 kts 266°
2026-04-15 03:52 42.56595 -70.73092 2987 ft 195 kts 266°
2026-04-15 03:52 42.56398 -70.74907 2980 ft 195 kts 266°
2026-04-15 03:52 42.56198 -70.76732 2979 ft 196 kts 266°
2026-04-15 03:52 42.55999 -70.78561 2983 ft 196 kts 265°
2026-04-15 03:53 42.55813 -70.80384 2981 ft 195 kts 266°
2026-04-15 03:53 42.55622 -70.82195 2985 ft 194 kts 266°
2026-04-15 03:53 42.55427 -70.84005 2982 ft 193 kts 265°
2026-04-15 03:53 42.55235 -70.85802 2980 ft 193 kts 266°
2026-04-15 03:54 42.55084 -70.86994 2981 ft 194 kts 259°
2026-04-15 03:54 42.54137 -70.89111 2989 ft 204 kts 237°
2026-04-15 03:54 42.53512 -70.90097 2984 ft 205 kts 236°
2026-04-15 03:55 42.51555 -70.92916 2946 ft 209 kts 226°
2026-04-15 03:55 42.50267 -70.93899 2705 ft 217 kts 210°
2026-04-15 03:55 42.48366 -70.94780 2298 ft 218 kts 206°
2026-04-15 03:55 42.47407 -70.95218 2117 ft 210 kts 207°
2026-04-15 03:56 42.46099 -70.95852 1820 ft 189 kts 208°
2026-04-15 03:56 42.44936 -70.96416 1578 ft 166 kts 208°
2026-04-15 03:56 42.43899 -70.96918 1407 ft 152 kts 208°
2026-04-15 03:56 42.42921 -70.97398 1199 ft 149 kts 207°
2026-04-15 03:57 42.41937 -70.97878 1001 ft 152 kts 206°
2026-04-15 03:57 42.40944 -70.98359 801 ft 152 kts 202°
2026-04-15 03:57 42.39966 -70.98832 602 ft 147 kts 200°
2026-04-15 03:57 42.39012 -70.99292 402 ft 145 kts 199°
2026-04-15 03:58 42.38071 -70.99747 213 ft 139 kts 199°
2026-04-15 03:58 42.37192 -71.00172 38 ft 127 kts 200°
2026-04-15 03:58 42.36461 -71.00523 34 ft 96 kts 200°
2026-04-15 03:58 42.35923 -71.00784 28 ft 67 kts 199°
2026-04-15 03:59 42.35574 -71.00957 30 ft 35 kts 200°
2026-04-15 03:59 42.35371 -71.01054 35 ft 28 kts 200°
2026-04-15 03:59 42.35211 -71.01135 36 ft 16 kts 218°
2026-04-15 03:59 42.35225 -71.01260 34 ft 15 kts 305°
2026-04-15 04:00 42.35250 -71.01304 33 ft 0 kts 306°
2026-04-15 04:00 42.35250 -71.01305 33 ft 1 kts 306°
2026-04-15 04:00 42.35285 -71.01368 31 ft 15 kts 307°
2026-04-15 04:01 42.35362 -71.01510 31 ft 23 kts 306°
2026-04-15 04:01 42.35459 -71.01687 30 ft 23 kts 314°
2026-04-15 04:01 42.35587 -71.01697 33 ft 19 kts 18°
2026-04-15 04:01 42.35723 -71.01630 32 ft 22 kts 20°
2026-04-15 04:02 42.35821 -71.01642 33 ft 13 kts 302°
2026-04-15 04:02 42.35842 -71.01754 33 ft 12 kts 282°
2026-04-15 04:02 42.35847 -71.01857 31 ft 5 kts 229°
2026-04-15 04:02 42.35813 -71.01885 32 ft 6 kts 211°
2026-04-15 04:03 42.35794 -71.01901 32 ft 2 kts 211°
2026-04-15 04:03 42.35791 -71.01903 32 ft 0 kts 211°